Weather History for Henderson, TX

Change the Weather History Date:

Wednesday, March 13, 2013

  Actual Average (KGGG) Record (KGGG)
Temperature  
Mean Temperature 51 °F 57 °F  
Max Temperature 68 °F 69 °F 89 °F (1904)
Min Temperature 35 °F 46 °F 19 °F (1948)
Degree Days  
Heating Degree Days 14 9  
Month to date heating degree days 131  
Since 1 July heating degree days 2035  
Cooling Degree Days 0 1  
Month to date cooling degree days 13  
Year to date cooling degree days 25  
Growing Degree Days 1 (Base 50)    
Moisture  
Dew Point 31 °F    
Average Humidity 53    
Maximum Humidity 90    
Minimum Humidity 19    
Precipitation  
Precipitation 0.00 in 0.14 in 1.52 in (2009)
Month to date precipitation 1.80  
Year to date precipitation 9.16  
Snow  
Snow 0.00 in - - ()
Month to date snowfall  
Since 1 July snowfall  
Snow Depth -    
Sea Level Pressure  
Sea Level Pressure 30.38 in    
Wind  
Wind Speed 1 mph (NE)    
Max Wind Speed 12 mph    
Max Gust Speed -    
Visibility 10 miles    
Events      
T = Trace of Precipitation, MM = Missing Value Source: NWS Daily Summary

Daily Weather History Graph

Daily Weather History Graph

Search for Another Location

Airport:

Trip Planner

Search our weather history database for the weather conditions in past years. The results will help you decide how hot, cold, wet, or windy it might be!

Date:

Astronomy

Mar. 13, 2013 Rise Set
Actual Time 7:31 AM CDT 7:26 PM CDT
Civil Twilight 7:07 AM CDT 7:50 PM CDT
Nautical Twilight 6:39 AM CDT 8:19 PM CDT
Astronomical Twilight 6:10 AM CDT 8:47 PM CDT
Moon 8:20 AM CDT (3/13) 9:32 PM CDT (3/13)
Length of Visible Light 12h 43m
Length of Day
11h 54m
Waxing Crescent, 4% of the Moon is Illuminated
Mar 13
Waxing Crescent
Mar 19
First Quarter
Mar 27
Full
Apr 2
Last Quarter
Apr 10
New

Hourly Weather History & Observations

Time (CDT) Temp. Dew Point Humidity Pressure Visibility Wind Dir Wind Speed Gust Speed Precip Events Conditions
12:15 AM 41.9 °F 33.1 °F 71% 30.30 in 10.0 mi Calm Calm - N/A   Clear
12:35 AM 41.9 °F 33.3 °F 71% 30.29 in 10.0 mi Calm Calm - N/A   Clear
12:55 AM 41.9 °F 34.0 °F 73% 30.29 in 10.0 mi Calm Calm - N/A   Clear
1:15 AM 41.9 °F 34.0 °F 73% 30.30 in 10.0 mi Calm Calm - N/A   Clear
1:35 AM 40.5 °F 34.0 °F 78% 30.30 in 10.0 mi Calm Calm - N/A   Clear
1:55 AM 39.6 °F 33.3 °F 78% 30.31 in 10.0 mi Calm Calm - N/A   Clear
2:15 AM 39.4 °F 33.1 °F 78% 30.31 in 10.0 mi Calm Calm - N/A   Clear
2:35 AM 39.2 °F 33.3 °F 79% 30.32 in 10.0 mi Calm Calm - N/A   Clear
2:55 AM 38.3 °F 32.7 °F 80% 30.32 in 10.0 mi Calm Calm - N/A   Clear
3:15 AM 39.4 °F 33.4 °F 79% 30.32 in 10.0 mi Calm Calm - N/A   Clear
3:35 AM 39.4 °F 32.9 °F 78% 30.33 in 10.0 mi Calm Calm - N/A   Clear
3:55 AM 39.9 °F 32.7 °F 75% 30.33 in 10.0 mi Calm Calm - N/A   Clear
4:15 AM 40.3 °F 33.4 °F 77% 30.33 in 10.0 mi Calm Calm - N/A   Clear
4:35 AM 39.2 °F 32.7 °F 78% 30.33 in 10.0 mi Calm Calm - N/A   Clear
4:55 AM 39.0 °F 32.7 °F 78% 30.34 in 10.0 mi Calm Calm - N/A   Clear
5:15 AM 37.4 °F 32.2 °F 81% 30.35 in 10.0 mi Calm Calm - N/A   Clear
5:35 AM 38.3 °F 32.5 °F 80% 30.35 in 10.0 mi Calm Calm - N/A   Clear
5:55 AM 37.8 °F 32.2 °F 80% 30.36 in 10.0 mi Calm Calm - N/A   Clear
6:15 AM 36.7 °F 33.3 °F 87% 30.37 in 10.0 mi Calm Calm - N/A   Clear
6:35 AM 36.7 °F 32.9 °F 86% 30.38 in 10.0 mi Calm Calm - N/A   Clear
6:55 AM 36.5 °F 32.7 °F 86% 30.38 in 10.0 mi Calm Calm - N/A   Clear
7:15 AM 36.3 °F 32.2 °F 85% 30.39 in 10.0 mi Calm Calm - N/A   Clear
7:35 AM 35.2 °F 32.0 °F 88% 30.40 in 10.0 mi Calm Calm - N/A   Clear
7:55 AM 35.6 °F 32.9 °F 90% 30.41 in 10.0 mi Calm Calm - N/A   Clear
8:15 AM 38.5 °F 35.2 °F 88% 30.42 in 10.0 mi Calm Calm - N/A   Clear
8:35 AM 41.7 °F 36.7 °F 82% 30.42 in 10.0 mi Calm Calm - N/A   Clear
8:55 AM 46.6 °F 36.9 °F 69% 30.43 in 10.0 mi Calm Calm - N/A   Clear
9:15 AM 50.2 °F 35.8 °F 58% 30.44 in 10.0 mi ENE 4.6 mph - N/A   Clear
9:35 AM 52.5 °F 31.6 °F 45% 30.45 in 10.0 mi ENE 9.2 mph - N/A   Clear
9:55 AM 53.8 °F 30.2 °F 41% 30.45 in 10.0 mi ENE 8.1 mph - N/A   Clear
10:15 AM 54.1 °F 29.3 °F 39% 30.46 in 10.0 mi East 11.5 mph - N/A   Clear
10:35 AM 55.6 °F 28.6 °F 36% 30.46 in 10.0 mi ENE 5.8 mph - N/A   Clear
10:55 AM 57.6 °F 28.9 °F 34% 30.46 in 10.0 mi ENE 3.5 mph - N/A   Clear
11:15 AM 57.2 °F 28.6 °F 34% 30.46 in 10.0 mi Calm Calm - N/A   Clear
11:35 AM 59.2 °F 28.8 °F 31% 30.46 in 10.0 mi ESE 3.5 mph - N/A   Clear
11:55 AM 59.4 °F 28.0 °F 30% 30.46 in 10.0 mi Calm Calm - N/A   Clear
12:15 PM 60.8 °F 27.7 °F 28% 30.45 in 10.0 mi East 6.9 mph - N/A   Clear
12:35 PM 61.5 °F 27.1 °F 27% 30.45 in 10.0 mi Calm Calm - N/A   Clear
12:55 PM 62.8 °F 27.5 °F 26% 30.44 in 10.0 mi East 8.1 mph - N/A   Clear
1:15 PM 62.8 °F 26.4 °F 25% 30.44 in 10.0 mi Calm Calm - N/A   Clear
1:35 PM 64.8 °F 24.3 °F 22% 30.43 in 10.0 mi East 3.5 mph - N/A   Clear
1:55 PM 64.8 °F 25.2 °F 22% 30.42 in 10.0 mi Calm Calm - N/A   Clear
2:15 PM 65.3 °F 24.6 °F 21% 30.41 in 10.0 mi NNW 3.5 mph - N/A   Clear
2:35 PM 66.0 °F 24.3 °F 21% 30.40 in 10.0 mi NNW 5.8 mph - N/A   Clear
2:55 PM 66.0 °F 24.6 °F 21% 30.39 in 10.0 mi North 5.8 mph - N/A   Clear
3:15 PM 66.6 °F 25.7 °F 21% 30.39 in 10.0 mi North 4.6 mph - N/A   Clear
3:35 PM 67.1 °F 24.6 °F 20% 30.39 in 10.0 mi ESE 3.5 mph - N/A   Clear
3:55 PM 67.5 °F 26.4 °F 21% 30.38 in 10.0 mi NNW 5.8 mph - N/A   Clear
4:15 PM 67.1 °F 25.0 °F 20% 30.37 in 10.0 mi Calm Calm - N/A   Clear
4:35 PM 67.6 °F 25.2 °F 20% 30.37 in 10.0 mi North 8.1 mph - N/A   Clear
4:55 PM 66.9 °F 23.5 °F 19% 30.36 in 10.0 mi Calm Calm - N/A   Clear
5:15 PM 67.1 °F 23.9 °F 20% 30.36 in 10.0 mi North 3.5 mph - N/A   Clear
5:35 PM 67.3 °F 23.5 °F 19% 30.36 in 10.0 mi North 5.8 mph - N/A   Clear
5:55 PM 66.9 °F 24.1 °F 20% 30.36 in 10.0 mi NNE 5.8 mph - N/A   Clear
6:15 PM 66.2 °F 25.5 °F 22% 30.36 in 10.0 mi Calm Calm - N/A   Clear
6:35 PM 65.3 °F 25.2 °F 22% 30.35 in 10.0 mi Calm Calm - N/A   Clear
6:55 PM 64.2 °F 26.8 °F 24% 30.35 in 10.0 mi NE 3.5 mph - N/A   Clear
7:15 PM 60.4 °F 30.6 °F 32% 30.35 in 10.0 mi Calm Calm - N/A   Clear
7:35 PM 57.6 °F 32.9 °F 39% 30.35 in 10.0 mi Calm Calm - N/A   Clear
7:55 PM 55.0 °F 33.4 °F 44% 30.35 in 10.0 mi Calm Calm - N/A   Clear
8:15 PM 52.2 °F 34.3 °F 51% 30.36 in 10.0 mi Calm Calm - N/A   Clear
8:35 PM 52.0 °F 35.1 °F 53% 30.36 in 10.0 mi Calm Calm - N/A   Clear
8:55 PM 51.6 °F 33.4 °F 50% 30.36 in 10.0 mi Calm Calm - N/A   Clear
9:15 PM 49.3 °F 36.3 °F 61% 30.36 in 10.0 mi Calm Calm - N/A   Clear
9:35 PM 48.9 °F 37.4 °F 64% 30.36 in 10.0 mi Calm Calm - N/A   Clear
9:55 PM 47.1 °F 35.8 °F 65% 30.36 in 10.0 mi Calm Calm - N/A   Clear
10:15 PM 46.6 °F 36.5 °F 68% 30.37 in 10.0 mi Calm Calm - N/A   Clear
10:35 PM 46.6 °F 34.9 °F 64% 30.37 in 10.0 mi Calm Calm - N/A   Clear
10:55 PM 45.5 °F 36.7 °F 71% 30.38 in 10.0 mi Calm Calm - N/A   Clear
11:15 PM 44.6 °F 35.6 °F 71% 30.38 in 10.0 mi Calm Calm - N/A   Clear
11:35 PM 43.7 °F 36.9 °F 77% 30.37 in 10.0 mi Calm Calm - N/A   Clear
11:55 PM 43.5 °F 36.1 °F 75% 30.37 in 10.0 mi Calm Calm - N/A   Clear